सभी
Gunnedah Hospital Airport YXGU मौसम
There is no TAF data available at YXGU or any nearby airports.
There is no METAR data available at YXGU. Showing METAR data for YGDH (2 mi N).
Recent GUH METAR history (no data for YXGU)
| Date | Time (AEST) | Flight Rules | Wind Dir. | Speed | Type | Height AGL (ft) | Visibility | Temp (°C) | Temp (°F) | Dew Point (°C) | Dew Point (°F) | Rel. Humid. | Pressure | Density Altitude | Remarks |
|---|---|---|---|---|---|---|---|---|---|---|---|---|---|---|---|
| 05-मई | 15:00 | n/a | 120° | 8 kt | Missing | 19° | 66° | 9° | 48° | 52% | 1018 mb | 1,201 ft | |||
| 05-मई | 14:00 | n/a | 130° | 7 kt | Missing | 19° | 66° | 13° | 55° | 68% | 1018 mb | 1,201 ft | |||
| 05-मई | 13:00 | n/a | 180° | 7 kt | Missing | 18° | 64° | 14° | 57° | 77% | 1018 mb | 1,081 ft | |||
| 05-मई | 12:00 | n/a | 160° | 7 kt | Missing | 18° | 64° | 15° | 59° | 83% | 1019 mb | 1,052 ft | |||
| 05-मई | 11:00 | n/a | 140° | 4 kt | Missing | 19° | 66° | 15° | 59° | 78% | 1019 mb | 1,172 ft | |||
| 05-मई | 10:00 | n/a | 170° | 1 kt | Missing | 18° | 64° | 15° | 59° | 83% | 1019 mb | 1,052 ft | |||
| 05-मई | 09:00 | n/a | 180° | 5 kt | Missing | 17° | 62° | 15° | 59° | 88% | 1019 mb | 932 ft | |||
| 05-मई | 08:00 | n/a | 260° | 3 kt | Missing | 16° | 60° | 15° | 59° | 94% | 1019 mb | 812 ft | |||
| 05-मई | 07:00 | n/a | Calm | Missing | 16° | 60° | 16° | 60° | 100% | 1018 mb | 841 ft | ||||
| 05-मई | 06:00 | n/a | 30° | 4 kt | Missing | 17° | 62° | 16° | 60° | 94% | 1018 mb | 961 ft | |||
| 05-मई | 05:00 | n/a | 10° | 5 kt | Missing | 16° | 60° | 16° | 60° | 100% | 1018 mb | 841 ft | |||
| 05-मई | 04:00 | n/a | 80° | 3 kt | Missing | 16° | 60° | 16° | 60° | 100% | 1018 mb | 841 ft | |||
| 05-मई | 03:00 | n/a | 240° | 3 kt | Missing | 17° | 62° | 16° | 60° | 94% | 1017 mb | 991 ft | |||
| 05-मई | 02:00 | n/a | 180° | 4 kt | Missing | 17° | 62° | 16° | 60° | 94% | 1017 mb | 991 ft | |||
| 05-मई | 01:00 | n/a | 350° | 3 kt | Missing | 16° | 60° | 16° | 60° | 100% | 1018 mb | 841 ft | |||
| 05-मई | 00:00 | n/a | Calm | Missing | 17° | 62° | 15° | 59° | 88% | 1017 mb | 991 ft | ||||
| 04-मई | 23:00 | n/a | 200° | 7 kt | Missing | 17° | 62° | 15° | 59° | 88% | 1017 mb | 991 ft | |||
| 04-मई | 22:00 | n/a | 190° | 5 kt | Missing | 17° | 62° | 15° | 59° | 88% | 1017 mb | 991 ft | |||
| 04-मई | 21:00 | n/a | 150° | 6 kt | Missing | 17° | 62° | 15° | 59° | 88% | 1017 mb | 991 ft | |||
| 04-मई | 20:00 | n/a | 130° | 6 kt | Missing | 17° | 62° | 15° | 59° | 88% | 1017 mb | 991 ft | |||
| 04-मई | 19:00 | n/a | 130° | 8 kt | Missing | 17° | 62° | 15° | 59° | 88% | 1017 mb | 991 ft | |||
| 04-मई | 18:00 | n/a | 130° | 8 kt | Missing | 18° | 64° | 14° | 57° | 77% | 1017 mb | 1,111 ft | |||
| 04-मई | 17:00 | n/a | 120° | 5 kt | Missing | 20° | 68° | 14° | 57° | 68% | 1016 mb | 1,381 ft | |||
| 04-मई | 16:00 | n/a | 220° | 6 kt | Missing | 20° | 68° | 14° | 57° | 68% | 1016 mb | 1,381 ft |
लॉगिन
| Your browser is unsupported. अपना ब्राऊजर अपग्रेड करें |
